SES-20

Last updated on Sun Jun 21 2026 00:03:08 GMT+0000 (Coordinated Universal Time)

1 53960U 22123A 26170.87250183 -.00000106 00000+0 00000+0 0 9999 2 53960 0.0296 69.4323 0001819 12.2949 37.3554 1.00271156 13560
UTC large
Height (km)
Speed (km/s)
/
Latitude / Longitude
Inclination (degrees)
Orbital Period (minutes)
Azimuth
Elevation
Range (km)
Doppler Factor

Next 0 passes for location: London (51.5072 / 0.1276)

No passes found over London.
SES-20